WJORDANBC Weather Reports


time (UTC)temp
C
wind
direction
speed
KPH
gust
KPH
rain 1hr
cm
rain 24hr
cm
rain mn
cm
humidity
%
barometer
mb
20260505201526 11 142 12.9 22.5 0.00 0.25 0.25 61 1004.9
20260505200030 10 184 11.3 20.9 0.00 0.25 0.25 62 1005.0
20260505194600 10 155 11.3 20.9 0.00 0.25 0.25 62 1005.0
20260505193050 10 136 14.5 22.5 0.00 0.25 0.25 63 1004.8
20260505191549 11 155 11.3 22.5 0.00 0.25 0.25 64 1004.7
20260505190051 10 130 12.9 22.5 0.00 0.25 0.25 64 1004.6
20260505184556 10 140 16.1 25.7 0.00 0.25 0.25 64 1004.6
20260505183103 10 144 14.5 24.1 0.00 0.25 0.25 64 1004.5
20260505181603 10 184 12.9 29.0 0.00 0.25 0.25 65 1004.3
20260505180112 10 196 16.1 29.0 0.00 0.25 0.25 68 1004.3
20260505174618 9 157 16.1 25.7 0.00 0.25 0.25 70 1004.4
20260505173118 8 172 12.9 29.0 0.00 0.25 0.25 73 1004.1
20260505171621 8 167 17.7 30.6 0.00 0.25 0.25 72 1004.2
20260505170002 8 111 14.5 29.0 0.00 0.25 0.25 74 1004.0
20260505164507 8 167 17.7 32.2 0.00 0.25 0.25 74 1004.0
20260505163011 8 157 17.7 38.6 0.00 0.25 0.25 75 1004.1
20260505161520 8 171 16.1 43.5 0.00 0.25 0.25 74 1003.9
20260505153051 8 168 16.1 38.6 0.00 0.25 0.25 69 1003.6
20260505151553 8 163 17.7 32.2 0.00 0.25 0.25 69 1003.4
20260505140126 9 143 14.5 29.0 0.00 0.25 0.25 67 1002.6
20260505130117 9 201 6.4 19.3 0.00 0.25 0.25 80 1001.9
20260505124605 8 200 6.4 20.9 0.00 0.25 0.25 81 1001.7
20260505123101 8 233 1.6 8.0 0.00 0.25 0.25 83 1001.5
20260505121557 8 242 4.8 12.9 0.00 0.25 0.25 81 1001.5
20260505120113 8 254 6.4 12.9 0.05 0.25 0.25 81 1001.4
20260505114603 8 270 9.7 22.5 0.10 0.25 0.25 81 1001.3
20260505113103 8 258 17.7 30.6 0.20 0.25 0.25 81 1001.3
20260505111602 8 232 17.7 24.1 0.25 0.25 0.25 84 1001.4
20260505110110 8 237 14.5 22.5 0.18 0.18 0.18 83 1001.6
20260505101607 10 234 3.2 8.0 0.00 0.00 0.00 74 1001.5
20260505100114 10 287 0.0 9.7 0.00 0.00 0.00 77 1001.7
20260505094622 9 269 4.8 11.3 0.00 0.00 0.00 78 1001.6
20260505093004 9 267 4.8 9.7 0.00 0.00 0.00 78 1001.6
20260505091507 10 267 4.8 9.7 0.00 0.00 0.00 76 1001.6
20260505090010 10 265 1.6 9.7 0.00 0.00 0.00 72 1001.7
20260505084522 10 296 1.6 14.5 0.00 0.00 0.00 71 1001.9
20260505083020 11 229 3.2 19.3 0.00 0.00 0.00 66 1002.0
20260505081515 11 200 3.2 17.7 0.00 0.00 0.00 64 1002.0
20260505080020 11 162 9.7 22.5 0.00 0.00 0.00 62 1001.9
20260505074514 11 157 12.9 24.1 0.00 0.00 0.00 60 1001.8
20260505073042 11 184 14.5 25.7 0.00 0.00 0.00 58 1001.9
20260505071510 12 205 14.5 37.0 0.00 0.00 0.00 56 1001.7
20260505070003 11 189 19.3 41.8 0.00 0.00 0.00 58 1001.7
20260505064625 11 143 17.7 30.6 0.00 0.00 0.00 59 1001.7
20260505063006 11 179 17.7 38.6 0.00 0.00 0.00 60 1001.6
20260505061510 11 213 30.6 45.1 0.00 0.00 0.00 60 1001.6
20260505060008 11 207 24.1 48.3 0.00 0.00 0.00 60 1001.6
20260505054513 12 163 27.4 53.1 0.00 0.00 0.00 59 1001.6
20260505053016 12 222 24.1 45.1 0.00 0.00 0.00 57 1001.4
20260505051523 12 200 22.5 41.8 0.00 0.00 0.00 58 1001.3
20260505041559 13 203 16.1 25.7 0.00 0.00 0.00 50 1000.6
20260505040059 12 193 8.0 16.1 0.00 0.00 0.00 54 1000.4
20260505034550 12 214 1.6 12.9 0.00 0.00 0.00 53 1000.3
20260505033022 13 214 1.6 14.5 0.00 0.00 0.00 51 1000.1
20260505031543 14 168 4.8 22.5 0.00 0.00 0.00 48 1000.0
20260505030042 14 194 11.3 29.0 0.00 0.00 0.00 46 999.8
20260505024556 15 216 14.5 24.1 0.00 0.00 0.00 45 999.6
20260505023048 15 221 14.5 22.5 0.00 0.00 0.00 44 999.5
20260505021555 16 173 11.3 24.1 0.00 0.00 0.00 43 999.3
20260505020051 16 144 12.9 30.6 0.00 0.00 0.00 40 999.3
20260505014607 17 188 0.0 3.2 0.00 0.00 0.00 37 999.3
20260505013059 17 207 0.0 6.4 0.00 0.00 0.00 36 999.4
20260505011608 18 96 0.0 0.0 0.00 0.00 0.00 37 999.5
20260505010055 18 90 0.0 6.4 0.00 0.00 0.00 37 999.7
20260505004554 17 100 0.0 9.7 0.00 0.00 0.00 37 999.9
20260505003042 17 71 4.8 17.7 0.00 0.00 0.00 37 999.8
20260505001518 18 86 8.0 17.7 0.00 0.00 0.00 36 999.9
20260505000050 18 94 9.7 19.3 0.00 0.00 0.00 35 999.9
20260504234548 18 115 1.6 17.7 0.00 0.00 0.00 33 1000.0
20260504233105 18 135 1.6 16.1 0.00 0.00 0.00 35 1000.3
20260504231601 18 113 9.7 19.3 0.00 0.00 0.00 33 1000.3
20260504230105 19 103 6.4 14.5 0.00 0.00 0.00 33 1000.0
20260504224614 19 288 8.0 20.9 0.00 0.00 0.00 30 1000.1
20260504223135 18 275 11.3 25.7 0.00 0.00 0.00 33 1000.0
20260504221623 17 271 17.7 32.2 0.00 0.00 0.00 35 1000.0
20260504220010 17 270 27.4 41.8 0.00 0.00 0.00 37 1000.1
20260504214514 16 285 25.7 43.5 0.00 0.00 0.00 39 1000.3
20260504213049 16 304 22.5 40.2 0.00 0.00 0.00 38 1000.3
20260504211540 17 283 29.0 41.8 0.00 0.00 0.00 34 1000.4
20260504210049 18 261 14.5 30.6 0.00 0.00 0.00 30 1000.6
20260504204553 18 265 16.1 29.0 0.00 0.00 0.00 28 1000.6
20260504203109 18 246 14.5 25.7 0.00 0.00 0.00 30 1000.6